sat.trackr.live / text

‹ back to catalog

STARLINK-32522

NORAD 61981 · 2024-210Y

PAYLOAD ACTIVE UNKNOWN

§ Identity

Operator
Country
US
Launch date
2024-11-14
Launch site
AFETR
Launch vehicle
Mass (kg)
RCS (m²)

Purposes: comms

External: N2YO · Heavens-Above · Gunter

§ Orbital elements

Epoch: 2026-05-24T22:47:21.820704Z

Period
94.27 min
Inclination
42.9987°
Eccentricity
0.0000675
Mean motion
15.27590568 rev/d
Perigee alt
482.6 km
Apogee alt
483.5 km
Semi-major
6,861.2 km
B*
5.2339e-4
RAAN
109.0848°
Arg perigee
242.9691°
Mean anomaly
117.1092°
Rev number
8,654

§ Raw data

STARLINK-325221 61981U 24210Y   26144.94955811  .00014173  00000+0  52339-3 0  99932 61981  42.9987 109.0848 0000675 242.9691 117.1092 15.27590568 86549

JSON: /api/v1/satellites/61981 · /tle

For live sub-satellite position, see the globe view (requires WebGL).

§ Visibility from observer

Set your observer location to see the next 7 days of passes ≥ 10°. The values pass through the URL so the page stays shareable.

No JS? Fill the form by hand. The geolocation button needs JavaScript.